7 * 24
多渠道服务支持
STARLINK-32912 是 SpaceX Starlink 卫星互联网项目中的一个组成部分,属于其低轨卫星群。该卫星由 SpaceX 设计和发射,旨在为全球用户提供高速互联网接入服务。它运行在近地轨道,配备先进通信设备,支持宽带数据传输。作为 Starlink 计划的一部分,STARLINK-32912 有助于扩大网络覆盖范围,提升连接质量,特别是在偏远和网络基础设施薄弱的地区。该卫星系统由数千颗卫星组成,共同构建一个全球性的高速互联网网络。
美国
(US)
| 数据来源 | 国际轨道数据 |
| 星历时间: | 2025-11-07T13:38:49+0800 17小时前 查看轨道信息 |
| 半长轴: | 6950.197km |
| 偏心率: | 0.0002917 |
| 轨道倾角: | 70.001° |
| 近地点辐角 | 266.956° |
| 升交点赤经 | 303.045° |
| 平近点角 | 93.127° |
| 近地点: | 570.034km |
| 远地点: | 574.09km |
| 周期: | 96.107分钟 |
| 每日圈数: | 14.983289 |